Temp
20 20 22 22 21 17 21 26 27 27 27 27 27 27 27 28 28 28 28 28 28 28 29 28 28 29 28 30 31 31 30 31 28 31 34 35 35 35 36 36 34 34 34
16 17 20 21 19 15 19 24 27 26 27 27 27 27 28 28 28 28 26 28 27 26 27 27 26 27 28 29 29 28 29 30 29 28 32 33 34 35 34 33 33 33 33
12 16 18 18 18 14 12 20 27 27 27 27 28 27 28 28 20 20 24 23 17 16 18 16 18 20 22 26 28 27 27 29 29 28 29 33 35 34 31 32 32 33 32
9 13 14 14 14 14 14 21 27 27 27 27 28 28 22 20 18 16 17 15 14 13 14 16 18 19 20 23 27 28 29 29 29 28 29 31 33 32 29 28 30 30 30
7 9 13 10 9 9 10 16 25 26 27 29 18 15 14 15 19 13 17 17 14 14 13 15 18 21 29 30 29 27 27 29 28 28 27 29 31 31 29 29 28 30 29
4 9 7 6 8 12 13 13 16 18 16 14 15 14 15 20 28 32 31 15 16 18 18 18 20 22 27 31 33 34 32 27 26 27 27 26 27 27 28 26 27 26 26
10 13 15 14 16 16 18 17 17 16 16 15 15 15 16 17 28 32 33 22 18 18 19 22 24 26 23 25 29 32 31 32 32 29 26 26 25 27 26 25 26 25 24
15 17 19 19 19 20 19 19 18 18 18 19 19 20 21 24 31 33 34 29 26 24 23 22 21 23 23 25 27 25 25 26 27 27 25 25 26 28 26 25 24 23 23
18 18 19 20 20 20 20 20 19 19 20 21 22 21 21 24 31 33 33 28 28 27 27 26 25 25 29 32 26 24 24 25 29 32 32 33 33 32 31 22 18 15 15
20 21 21 21 20 20 21 21 22 22 24 24 25 24 24 24 30 33 33 28 26 25 25 26 28 28 31 34 27 23 20 23 22 21 21 24 25 24 28 21 17 12 9
20 20 19 20 19 20 21 22 21 21 22 20 21 22 21 23 24 31 33 30 27 25 24 23 23 31 33 34 34 23 23 24 23 15 16 18 17 17 16 17 16 14 10
17 16 16 15 17 20 17 18 17 17 17 17 15 18 21 21 24 28 31 33 32 26 24 24 22 31 33 34 32 33 34 30 11 10 11 15 13 14 16 15 16 14 14
13 11 12 14 17 18 16 16 15 14 15 16 17 18 20 21 21 28 31 33 34 30 26 26 31 33 33 30 31 32 26 15 14 9 14 14 14 14 12 12 12 11 10
10 12 14 14 14 15 17 18 17 16 15 17 17 17 18 20 21 22 20 20 24 26 28 25 26 28 30 27 17 22 18 17 16 17 15 14 11 11 11 11 11 11 8
12 13 14 15 14 15 17 16 19 19 20 18 18 19 18 18 22 26 25 21 20 22 18 15 18 18 16 16 15 15 16 13 13 15 15 14 13 13 13 10 10 7 9
9 12 13 14 15 16 15 16 23 26 27 29 30 28 26 27 30 31 32 31 32 32 23 17 21 21 21 20 15 15 13 13 15 16 17 18 18 17 16 14 10 7 8
6 9 11 13 14 13 13 13 12 16 23 25 26 28 28 28 28 29 29 30 29 29 27 24 23 23 22 20 19 18 17 15 13 12 15 17 17 17 15 14 15 13 11
-1 5 9 10 9 8 9 8 8 8 8 9 16 23 24 26 27 27 27 24 16 20 19 17 16 17 19 19 18 18 17 17 17 17 17 16 15 15 15 15 15 13 13
1 4 4 2 -0 -0 -0 1 -0 1 1 1 2 13 11 20 21 21 20 8 8 9 11 14 14 13 13 16 16 16 16 15 16 16 16 17 17 16 15 15 16 16 14
-4 1 -1 -6 -6 -4 -3 -4 -3 -3 -4 -4 -2 -2 6 1 -1 -1 -3 -2 -2 -1 0 2 5 8 10 9 10 11 12 12 13 12 12 13 13 13 13 13 13 12 10
-7 -8 -6 -11 -11 -12 -13 -12 -12 -13 -13 -10 -8 -7 17 -9 -9 -12 -10 -7 -7 -6 -5 -5 -5 -4 -5 -4 -3 0 4 7 6 5 7 5 2 -1 -2 -0 -2 -2 -2
-13 -14 -14 -13 -14 -13 -14 -16 -17 -17 -16 -14 -9 -11 10 -13 -15 -11 -10 -8 -8 -10 -9 -11 -7 -9 -8 -7 -7 -7 -7 -5 -7 -7 -6 -3 -2 -3 -6 -9 -11 -13 -14
-14 -15 -15 -17 -18 -16 -16 -17 -18 -16 -13 -12 -11 -9 -10 -9 -9 -9 -8 -7 -8 -8 -9 -15 -11 -7 -9 -11 -12 -6 -6 -6 -5 -9 -10 -12 -12 -11 -14 -14 -16 -17 -16
-16 -16 -16 -14 -18 -16 -16 -12 -11 -11 -10 -10 -9 -7 -7 -5 -7 -5 -5 -5 -8 -8 -10 -10 -10 -9 -8 -9 -10 -12 -10 -9 -16 -7 -8 -10 -12 -15 -19 -18 -18 -17 -17
-17 -17 -17 -13 -14 -12 -12 -11 -9 -9 -8 -7 -5 -7 -5 -5 -6 -5 -4 -5 -7 -8 -6 -7 -8 -8 -8 -7 -7 -10 -11 -2 -5 -12 -14 -14 -11 -13 -18 -18 -19 -19 -18
-16 -16 -13 -14 -13 -12 -12 -9 -6 -6 -5 -4 -4 -4 -4 -4 -3 -3 -3 -3 -4 -4 -5 -7 -6 -7 -7 -7 -7 -5 -5 0 -5 -6 -12 -11 -11 -14 -15 -15 -16 -18 -17
MSLP
1021.24 1021.20 1021.18 1021.22 1021.25 1021.27 1021.18 1020.98 1020.75 1020.59 1020.52 1020.49 1020.51 1020.54 1020.47 1020.25 1020.07 1019.87 1019.77 1019.75 1019.78 1019.62 1019.40 1019.18 1018.92 1018.62 1018.29 1017.95 1017.66 1017.35 1017.11 1016.74 1015.29 1012.79 1012.54 1011.50 1010.62 1009.91 1009.11 1008.52 1008.13 1007.77 1007.26
1021.21 1021.08 1020.98 1021.06 1021.18 1021.13 1020.86 1020.58 1020.43 1020.34 1020.23 1020.29 1020.35 1020.31 1020.10 1019.89 1019.61 1019.74 1019.70 1019.67 1019.46 1019.45 1019.24 1018.95 1018.62 1018.34 1017.82 1017.58 1017.24 1016.98 1016.63 1016.17 1015.35 1013.45 1012.18 1011.37 1010.48 1009.52 1008.66 1008.21 1007.68 1007.31 1006.87
1021.05 1020.98 1020.96 1020.89 1020.83 1020.66 1020.52 1020.40 1020.22 1020.17 1020.17 1020.06 1020.07 1019.89 1019.70 1019.45 1019.49 1019.52 1019.56 1019.32 1019.22 1019.21 1019.03 1018.97 1018.51 1018.16 1017.75 1017.31 1017.05 1016.65 1016.13 1015.51 1014.90 1013.97 1012.10 1011.31 1010.06 1009.28 1008.60 1008.01 1007.38 1006.73 1006.58
1020.91 1020.87 1020.73 1020.48 1020.18 1020.13 1020.20 1020.26 1020.05 1020.03 1019.90 1019.80 1019.61 1019.39 1019.14 1019.12 1019.24 1019.18 1019.07 1018.97 1018.95 1018.86 1018.66 1018.48 1018.12 1017.86 1017.50 1016.98 1016.42 1016.05 1015.56 1014.83 1014.19 1013.40 1012.22 1010.93 1010.03 1009.36 1009.13 1008.38 1007.47 1007.12 1006.70
1020.68 1020.65 1020.33 1020.04 1019.92 1019.98 1019.99 1019.81 1019.81 1019.72 1019.54 1019.30 1019.27 1019.07 1018.81 1018.94 1018.82 1018.61 1018.56 1018.32 1018.48 1018.40 1018.14 1017.90 1017.58 1017.13 1016.58 1016.12 1015.83 1015.36 1015.12 1014.45 1013.86 1013.09 1012.26 1011.16 1010.18 1009.64 1009.42 1009.00 1008.24 1007.45 1006.89
1020.14 1020.08 1020.05 1019.84 1019.66 1019.60 1019.50 1019.41 1019.48 1019.40 1019.15 1018.98 1018.86 1018.78 1018.68 1018.42 1018.22 1017.89 1017.72 1017.54 1017.68 1017.84 1017.77 1017.23 1016.79 1016.31 1015.87 1015.54 1015.22 1014.82 1014.43 1014.11 1013.68 1013.16 1012.43 1011.79 1010.82 1010.40 1009.92 1009.56 1008.94 1008.12 1007.42
1019.66 1019.41 1019.31 1019.15 1019.07 1018.95 1018.89 1018.86 1018.88 1018.81 1018.62 1018.46 1018.30 1018.29 1018.12 1017.75 1017.48 1017.07 1016.99 1016.69 1016.81 1016.86 1016.76 1016.43 1016.10 1015.64 1015.39 1015.08 1014.70 1014.39 1014.06 1013.70 1013.30 1013.06 1012.55 1012.16 1011.48 1010.78 1010.33 1009.58 1009.22 1009.05 1008.59
1019.10 1018.87 1018.68 1018.58 1018.47 1018.27 1018.23 1018.12 1017.91 1017.84 1017.85 1017.79 1017.62 1017.50 1017.39 1016.83 1016.57 1016.11 1016.07 1015.88 1015.92 1015.88 1015.77 1015.56 1015.41 1015.03 1014.76 1014.59 1014.25 1013.94 1013.65 1013.27 1012.88 1012.67 1012.37 1011.92 1011.54 1010.98 1010.60 1010.12 1009.58 1009.16 1008.51
1018.89 1018.65 1018.37 1018.08 1017.82 1017.62 1017.47 1017.23 1017.02 1017.05 1016.90 1016.80 1016.61 1016.47 1016.38 1015.87 1015.67 1015.36 1015.29 1015.18 1015.16 1015.01 1014.91 1014.75 1014.59 1014.35 1014.00 1013.85 1013.67 1013.47 1013.19 1012.82 1012.54 1012.12 1011.82 1011.39 1011.06 1010.83 1010.40 1010.10 1009.92 1009.59 1009.30
1018.90 1018.56 1018.17 1017.78 1017.47 1017.08 1016.71 1016.41 1016.19 1016.08 1015.85 1015.82 1015.56 1015.43 1015.21 1014.98 1014.83 1014.70 1014.61 1014.61 1014.52 1014.34 1014.14 1013.95 1013.74 1013.55 1013.34 1013.11 1013.08 1013.08 1012.96 1012.48 1012.23 1011.99 1011.74 1011.34 1011.08 1010.87 1010.63 1010.59 1010.40 1010.45 1010.16
1019.01 1018.59 1018.14 1017.68 1017.22 1016.67 1016.16 1015.84 1015.60 1015.46 1015.26 1015.11 1014.97 1014.78 1014.60 1014.40 1014.16 1014.02 1013.86 1013.77 1013.69 1013.53 1013.36 1013.12 1012.89 1012.79 1012.58 1012.40 1012.26 1012.31 1012.14 1011.86 1011.81 1011.91 1011.78 1011.44 1011.09 1010.79 1010.69 1010.51 1010.50 1010.49 1010.52
1019.07 1018.58 1018.08 1017.63 1017.11 1016.45 1016.07 1015.62 1015.34 1015.14 1014.95 1014.74 1014.58 1014.22 1013.89 1013.69 1013.46 1013.21 1012.97 1012.72 1012.60 1012.62 1012.40 1012.18 1012.08 1012.14 1011.99 1011.80 1011.66 1011.56 1011.43 1011.32 1011.69 1012.00 1011.71 1011.33 1011.09 1011.01 1010.58 1010.43 1010.27 1010.12 1009.96
1019.12 1018.52 1017.96 1017.41 1016.84 1016.29 1015.90 1015.40 1015.06 1014.76 1014.56 1014.20 1014.03 1013.66 1013.15 1012.86 1012.63 1012.37 1012.06 1011.76 1011.57 1011.41 1011.29 1011.24 1011.26 1011.20 1011.15 1011.08 1011.11 1011.13 1011.10 1011.31 1011.68 1011.78 1011.62 1011.27 1010.91 1010.32 1010.30 1010.17 1010.01 1009.98 1009.82
1019.26 1018.54 1017.90 1017.34 1016.70 1016.08 1015.59 1015.16 1014.74 1014.39 1014.12 1013.74 1013.44 1013.12 1012.72 1012.38 1012.06 1011.81 1011.62 1011.28 1011.00 1010.81 1010.60 1010.55 1010.58 1010.50 1010.53 1010.54 1010.66 1010.68 1010.72 1010.86 1011.12 1011.20 1010.96 1010.64 1010.43 1010.42 1010.50 1010.24 1010.40 1010.40 1010.24
1019.37 1018.60 1017.93 1017.32 1016.76 1016.14 1015.55 1015.00 1014.35 1013.87 1013.43 1012.93 1012.50 1012.31 1012.19 1011.75 1011.20 1010.89 1010.74 1010.57 1010.38 1010.11 1010.21 1010.46 1010.54 1010.67 1010.55 1010.54 1010.60 1010.57 1010.40 1010.44 1010.63 1010.51 1010.42 1010.33 1010.22 1010.20 1010.07 1009.94 1010.05 1009.99 1010.27
1019.58 1018.78 1018.11 1017.45 1016.88 1016.34 1015.76 1014.88 1014.22 1013.58 1012.92 1012.31 1011.64 1011.26 1011.02 1010.92 1010.49 1009.99 1009.60 1009.34 1009.13 1009.04 1009.36 1009.90 1009.95 1009.94 1010.00 1009.90 1010.08 1010.16 1010.10 1010.08 1010.04 1009.89 1009.70 1009.61 1009.54 1009.63 1009.59 1009.58 1009.60 1009.65 1009.96
1020.03 1019.24 1018.52 1017.83 1017.32 1016.83 1016.25 1015.63 1014.87 1013.78 1013.28 1012.68 1012.02 1011.45 1011.15 1010.78 1010.39 1009.95 1009.57 1009.22 1008.83 1008.57 1008.60 1008.99 1009.33 1009.25 1009.29 1009.44 1009.58 1009.62 1009.64 1009.55 1009.48 1009.49 1009.32 1009.17 1009.12 1009.16 1009.30 1009.22 1009.32 1009.46 1009.54
1020.23 1019.50 1018.96 1018.50 1018.09 1017.59 1017.11 1016.61 1016.08 1015.48 1014.79 1013.92 1012.99 1012.30 1011.94 1011.27 1010.76 1010.35 1009.91 1009.61 1009.60 1009.42 1009.69 1009.82 1009.82 1009.79 1009.63 1009.52 1009.46 1009.40 1009.29 1009.28 1009.30 1009.27 1009.10 1008.94 1008.85 1008.85 1008.88 1008.93 1009.00 1009.17 1009.21
1020.37 1019.71 1019.28 1018.87 1018.52 1018.22 1017.83 1017.33 1016.90 1016.43 1016.04 1015.44 1014.51 1013.40 1013.01 1012.38 1011.86 1011.45 1011.12 1011.10 1011.02 1010.76 1010.68 1010.58 1010.48 1010.33 1010.08 1009.88 1009.69 1009.54 1009.45 1009.38 1009.33 1009.26 1009.13 1008.97 1008.88 1008.85 1008.81 1008.89 1008.98 1009.08 1009.20
1020.36 1019.74 1019.47 1019.29 1019.00 1018.63 1018.30 1017.96 1017.59 1017.24 1016.83 1016.35 1015.72 1014.89 1013.92 1013.40 1013.09 1012.91 1012.52 1012.32 1012.05 1011.84 1011.64 1011.45 1011.22 1010.70 1010.42 1010.27 1010.05 1009.79 1009.76 1009.66 1009.57 1009.43 1009.24 1009.12 1009.07 1009.04 1009.05 1009.19 1009.36 1009.57 1009.74
1020.57 1020.25 1019.87 1019.63 1019.36 1019.10 1018.83 1018.53 1018.20 1017.86 1017.53 1016.97 1016.27 1015.52 1013.83 1014.21 1014.01 1013.68 1013.27 1012.98 1012.83 1012.58 1012.32 1012.08 1011.54 1011.10 1010.77 1010.54 1010.35 1010.26 1010.12 1009.99 1009.96 1009.90 1009.79 1009.70 1009.66 1009.69 1009.75 1009.92 1010.10 1010.27 1010.45
1020.58 1020.68 1020.25 1019.92 1019.59 1019.24 1018.92 1018.60 1018.23 1017.83 1017.35 1016.96 1016.09 1015.53 1014.34 1014.54 1014.12 1013.73 1013.30 1013.01 1012.39 1012.01 1011.66 1011.43 1011.12 1010.79 1010.54 1010.41 1010.26 1010.34 1010.56 1010.37 1010.38 1010.10 1010.38 1009.98 1010.11 1010.30 1010.46 1010.65 1010.87 1011.05 1011.24
1020.26 1020.57 1020.19 1019.84 1019.55 1019.16 1018.69 1018.23 1017.88 1017.44 1016.98 1016.39 1015.79 1015.12 1014.35 1013.94 1013.54 1013.14 1012.76 1012.15 1011.74 1011.34 1010.89 1010.82 1010.54 1010.16 1009.85 1009.85 1009.72 1009.54 1009.58 1009.62 1009.43 1009.50 1009.83 1010.31 1010.72 1010.83 1010.99 1011.12 1011.29 1011.62 1011.79
1019.82 1020.19 1019.91 1019.53 1019.17 1018.78 1018.39 1017.91 1017.35 1016.85 1016.39 1015.77 1015.08 1014.40 1013.80 1013.21 1012.71 1012.18 1011.66 1011.13 1010.79 1010.41 1010.14 1009.92 1009.68 1009.38 1009.02 1008.87 1008.71 1008.58 1008.51 1008.42 1008.70 1008.94 1009.13 1009.51 1010.20 1010.53 1011.16 1011.20 1011.30 1011.42 1011.65
1019.32 1019.49 1019.17 1018.82 1018.49 1018.16 1017.76 1017.19 1016.58 1015.91 1015.31 1014.75 1014.08 1013.47 1012.84 1012.30 1011.74 1011.09 1010.49 1010.02 1009.63 1009.34 1008.96 1008.71 1008.48 1008.27 1008.14 1007.99 1007.84 1007.67 1007.63 1007.57 1007.78 1008.15 1008.62 1008.88 1009.22 1009.83 1010.66 1010.94 1011.07 1011.32 1011.47
1018.58 1018.65 1018.26 1017.92 1017.60 1017.23 1016.86 1016.34 1015.60 1014.95 1014.32 1013.58 1012.97 1012.35 1011.83 1011.25 1010.52 1009.93 1009.38 1008.97 1008.59 1008.15 1007.80 1007.58 1007.38 1007.19 1007.05 1006.88 1006.70 1006.60 1006.62 1006.64 1006.89 1007.15 1007.66 1008.07 1008.59 1009.23 1009.69 1010.24 1010.49 1010.67 1010.80
Wind_Speed
4 3 3 3 3 3 4 4 3 3 3 4 4 5 5 5 5 4 4 4 6 6 6 6 9 9 7 6 6 5 7 8 13 15 12 13 15 14 13 9 7 6 7
4 3 4 3 4 4 4 3 3 4 4 5 6 6 6 5 4 4 4 5 4 5 7 7 8 6 7 7 5 7 8 9 10 17 15 14 15 13 10 9 6 5 6
3 3 5 5 5 4 3 5 4 4 5 6 7 6 5 4 3 4 5 5 4 5 5 5 6 5 6 5 6 6 7 7 8 9 14 11 11 6 4 5 5 4 3
4 5 6 5 4 3 3 5 4 5 6 7 7 5 4 3 4 5 4 4 5 5 5 5 5 6 6 6 6 7 8 8 7 8 9 11 7 3 3 4 5 1 6
4 5 6 4 3 3 4 4 5 7 7 7 3 5 3 4 5 4 6 5 6 6 5 6 6 7 12 10 6 6 7 7 6 7 8 8 8 7 7 4 5 7 2
3 6 4 4 3 5 5 5 6 7 6 4 6 5 6 5 12 14 11 4 5 5 6 6 6 7 8 12 13 13 10 6 7 7 6 8 8 8 6 7 6 4 4
4 5 5 4 5 6 6 5 7 7 5 6 6 5 8 7 15 15 15 4 5 6 6 6 6 4 5 6 10 11 10 11 9 6 7 6 8 7 6 7 6 5 4
3 4 4 5 6 6 6 7 7 5 7 6 7 8 8 8 15 15 15 6 5 6 7 6 6 7 6 6 6 5 5 5 5 4 5 6 6 7 4 3 3 5 4
5 5 5 5 6 6 7 7 6 5 6 8 7 7 8 9 15 15 12 5 7 8 7 7 7 7 11 13 6 6 7 6 5 9 10 11 11 12 9 4 4 4 3
7 7 7 6 7 7 7 8 6 6 8 6 8 8 9 10 13 15 13 4 8 7 6 7 12 10 14 14 6 5 6 6 4 5 4 6 6 5 6 3 2 1 2
8 8 8 8 8 8 8 7 6 6 7 6 8 7 7 8 10 17 17 9 7 7 7 6 5 14 14 14 14 5 7 5 7 3 3 4 3 2 1 1 1 2 1
8 9 8 8 7 6 6 7 6 5 6 7 5 7 6 7 13 16 19 18 16 9 9 6 5 13 14 15 11 11 13 9 0 2 2 3 3 2 2 3 4 3 3
9 8 8 7 7 7 6 6 4 4 4 6 5 6 7 4 6 16 18 19 18 12 6 11 16 16 16 11 10 11 7 1 2 2 4 3 3 3 3 3 1 3 2
8 8 7 7 8 6 5 4 4 3 4 5 5 6 6 5 5 5 6 6 11 10 11 6 6 9 11 8 3 5 2 3 3 4 3 2 2 2 2 0 1 2 2
8 7 7 6 6 7 6 6 5 5 7 5 6 6 6 7 7 10 9 5 5 7 3 1 2 2 3 3 3 4 4 2 3 3 3 3 3 1 2 0 0 1 1
8 6 6 6 6 6 6 7 11 13 15 15 15 10 3 10 16 15 16 20 18 16 4 3 4 5 6 5 3 3 3 4 4 4 4 4 4 4 3 1 1 1 2
7 8 6 6 6 6 6 6 8 9 13 14 14 13 13 13 15 13 13 11 11 7 4 3 3 2 2 2 3 3 3 2 2 2 3 3 4 4 3 2 2 2 2
5 7 4 5 5 5 5 5 4 5 6 6 10 12 15 15 14 14 13 8 4 4 1 1 1 1 2 2 2 2 2 2 2 3 3 3 3 3 2 3 3 3 2
4 4 3 3 3 3 3 3 3 3 3 3 4 8 9 15 13 13 14 3 2 2 2 2 2 2 2 2 3 2 3 3 3 3 3 4 4 3 3 2 2 2 2
4 6 3 3 3 3 3 3 3 3 3 3 4 3 4 4 4 4 3 3 3 2 2 2 3 3 2 2 2 3 3 2 2 2 2 1 1 0 1 1 1 1 0
3 4 4 2 2 2 2 2 2 2 3 3 4 4 13 2 4 3 3 3 3 3 3 3 3 3 2 2 2 2 2 2 1 2 1 0 1 1 1 2 2 1 2
2 3 2 2 3 3 3 2 3 3 3 4 5 5 14 2 3 4 5 5 5 4 4 4 4 4 4 4 3 3 3 3 2 1 1 1 2 2 2 2 1 1 1
2 3 3 3 2 4 3 3 3 3 5 5 5 6 4 5 5 5 6 6 5 5 4 4 5 5 4 5 4 5 5 5 5 5 4 4 3 3 3 3 3 2 2
2 3 3 4 3 3 4 5 5 6 6 6 6 7 6 7 6 8 7 7 5 6 5 5 5 7 6 5 5 5 5 4 4 5 6 5 4 4 3 2 3 3 3
3 3 3 4 4 5 5 5 6 6 6 6 7 5 7 7 7 8 8 7 6 6 7 6 5 7 9 10 8 8 7 9 6 6 4 5 6 7 4 3 4 3 3
3 4 4 4 5 5 5 6 7 7 8 8 8 8 8 9 9 9 8 8 7 7 7 5 7 10 10 8 9 10 9 10 8 9 6 5 6 5 4 4 6 3 4
Wind_Direction
234 230 241 252 263 272 243 231 239 242 251 255 260 259 256 259 255 256 262 268 261 269 270 277 283 284 277 266 262 262 272 270 276 290 293 299 296 295 294 282 267 270 275
237 224 240 241 243 256 258 268 253 251 254 249 254 252 255 248 255 259 267 254 254 286 289 290 290 287 285 282 273 274 271 277 279 292 299 303 297 295 280 282 269 261 275
236 238 241 236 231 241 258 277 251 256 254 256 250 244 246 247 255 266 258 264 250 261 271 270 270 277 280 280 280 277 275 275 281 287 296 297 296 293 299 279 288 288 262
230 232 243 246 236 235 244 265 254 256 252 251 248 247 257 270 253 262 262 258 252 256 254 258 269 258 260 276 289 281 287 285 286 283 293 299 301 307 281 309 319 293 300
229 247 251 249 253 268 251 253 266 257 247 247 268 277 269 260 261 251 254 247 242 267 269 263 257 258 272 278 285 283 283 301 302 307 307 307 320 328 333 315 301 309 254
236 252 258 261 246 245 244 237 243 253 255 254 261 253 271 260 266 267 267 232 233 240 263 269 258 262 281 290 293 292 291 292 300 310 313 317 322 320 331 317 309 328 323
248 264 262 248 257 252 244 228 235 238 232 245 250 244 253 252 263 265 266 227 225 240 248 256 270 252 265 275 291 298 300 288 285 296 307 319 315 323 316 318 339 320 292
271 273 268 256 256 253 240 241 243 224 232 240 240 237 247 253 263 263 264 250 241 241 241 242 239 260 254 267 276 287 291 283 266 269 268 283 281 310 290 280 286 282 260
336 313 295 273 266 261 253 248 239 230 237 237 237 238 235 255 261 265 265 250 252 252 247 242 239 248 260 271 266 274 290 294 292 307 311 308 312 323 334 331 339 10 328
335 324 313 299 280 271 261 257 249 231 250 244 250 236 239 253 260 265 267 252 260 259 247 244 241 244 255 264 261 255 274 273 284 308 318 321 320 311 347 10 314 359 290
322 314 309 306 300 286 279 270 262 250 251 245 247 252 244 241 258 265 265 260 248 258 253 253 231 251 258 261 263 226 236 251 272 272 295 298 298 303 281 322 320 167 198
318 312 306 300 298 296 288 288 269 257 257 259 245 265 250 242 243 258 262 256 253 240 243 251 240 260 266 269 269 264 280 291 262 295 300 288 280 256 267 272 251 245 227
317 308 303 301 304 300 292 289 284 250 255 269 260 268 275 245 240 260 266 266 263 258 230 237 253 263 270 276 278 279 285 254 242 259 267 258 240 255 280 289 283 254 266
309 311 313 316 318 314 305 289 282 268 261 262 262 264 270 274 258 246 251 257 269 268 266 265 246 247 251 252 257 269 236 223 223 244 248 235 283 305 304 205 257 335 14
316 313 317 317 314 313 309 302 297 263 251 260 248 245 256 264 257 252 250 242 237 238 202 191 214 229 246 252 265 255 262 242 227 225 229 247 262 261 251 261 147 347 120
321 326 325 325 325 323 322 321 326 328 327 323 317 320 301 274 292 304 294 262 261 260 192 201 226 225 237 237 226 253 249 256 254 233 235 231 238 239 252 257 187 171 217
320 316 321 327 333 332 331 331 330 334 345 354 354 346 348 343 346 342 339 343 14 23 273 233 248 255 216 215 228 225 248 231 224 243 236 241 237 235 221 219 230 233 256
301 299 312 330 328 329 333 331 330 337 339 337 348 359 1 351 347 344 342 356 355 13 22 319 278 276 263 261 251 241 253 269 261 265 265 260 243 231 220 230 222 221 237
312 306 318 310 300 304 312 330 330 345 342 313 330 354 358 358 12 15 20 26 350 357 352 353 349 317 300 294 281 267 258 255 257 259 256 258 254 243 241 244 223 207 196
298 306 321 316 329 335 343 344 343 344 335 332 325 299 304 1 3 333 341 353 5 350 339 344 327 322 306 287 278 268 264 263 263 265 263 243 263 274 187 154 139 157 89
298 307 314 327 335 315 298 326 303 310 299 299 283 281 325 85 299 288 300 304 292 292 291 286 292 289 286 302 327 323 299 289 322 302 304 318 51 103 43 80 110 102 119
286 287 308 289 302 314 299 277 289 285 279 289 290 290 320 307 281 279 281 276 269 253 249 242 257 239 232 227 230 230 226 228 238 195 171 164 139 124 121 111 123 122 128
279 301 301 287 269 288 297 279 288 285 287 280 279 288 288 278 270 265 264 265 261 267 260 240 251 263 238 237 221 206 203 213 214 186 188 191 191 187 166 165 161 142 168
239 258 264 275 289 285 279 286 285 275 275 280 282 280 276 277 271 271 268 265 255 254 245 246 238 246 259 249 236 229 228 229 189 196 185 171 185 169 148 145 170 175 152
235 251 246 261 270 275 290 283 279 273 272 266 277 268 273 268 271 267 263 258 257 253 259 247 237 243 250 252 250 242 234 242 204 189 178 173 183 176 171 166 160 166 159
243 245 254 262 265 258 257 274 277 273 274 276 269 268 268 272 270 270 270 266 264 261 254 240 247 250 249 249 246 246 232 229 219 203 183 178 178 180 181 179 174 170 165